www.pogodaiklimat.ru

Погода и климат >> Архив погоды >> Австрия >> Филлах


ПОГОДА в Филлахе

  • Прогноз погоды в Филлахе
  • Монитор погоды в Филлахе

АРХИВ ПОГОДЫ в Филлахе

Время (UTC), дата Ветер
(напр.,м/с)
 
Видим.   Явления Облачность Т
(С)
Тd
(С)
f
(%)
Тe
(С)
Тes
(С)
Комфортность P
(гПа)
Po
(гПа)
Тmin
(С)
Tmax
(С)
R
(мм)
R24
(мм)
S
(см)
10 12.09 ЮВ 1 н/о н/о +20.2 +10.4 53 +23 +23 комфорт 1030.4 973.2
11 12.09 ЮВ 1 н/о н/о +21.8 +9.9 47 +23 +23 комфорт 1029.7 972.9
12 12.09 ЮВ 1 н/о н/о +22.7 +8.4 40 +24 +24 комфорт 1029.3 972.6
13 12.09 ЮЗ 1 н/о н/о +23.4 +9.0 40 +25 +25 комфорт 1028.6 972.1
14 12.09 Ю 2 н/о н/о +23.1 +8.6 40 +24 +24 комфорт 1028.5 972.0
15 12.09 Ю 2 н/о н/о +23.3 +10.1 43 +25 +25 комфорт 1028.3 971.8
16 12.09 ЮВ 2 н/о н/о +23.3 +10.4 44 +25 +25 комфорт 1027.9 971.5
17 12.09 ЮВ 2 н/о н/о +21.7 +11.4 52 +24 +24 комфорт 1028.2 971.5
18 12.09 В 1 н/о н/о +18.0 +11.8 67 +19 +19 1029.6 972.1 +11.2 +24.0
20 12.09 СЗ 1 н/о н/о +15.4 +11.6 78 +16 +16 1031.1 973.0
21 12.09 З 1 н/о н/о +14.3 +11.3 82 +15 +15 1031.7 973.4
22 12.09 З 1 н/о н/о +13.2 +11.1 87 +13 +13 1032.6 974.0
23 12.09 штиль 0 н/о н/о +12.3 +10.7 90 +12 +12 1032.9 974.1
00 13.09 ЮЗ 1 н/о н/о +12.1 +10.3 89 +12 +12 1033.2 974.3
01 13.09 ЮЗ 1 н/о н/о +11.4 +10.0 91 +11 +11 1033.2 974.2
02 13.09 СЗ 2 н/о н/о +12.2 +10.0 86 +11 +11 1033.1 974.2
03 13.09 З 1 н/о н/о +11.7 +9.8 88 +12 +12 1033.2 974.2
04 13.09 З 1 н/о н/о +11.2 +9.5 89 +11 +11 1033.7 974.6
05 13.09 З 1 н/о н/о +11.1 +9.5 90 +11 +11 1034.3 975.1
06 13.09 З 1 20 км 1/1 1500 м
[Sc diur, vesp]
+12.0 +9.7 86 +12 +13 1034.1 975.1 +10.6 +18.4
07 13.09 СЗ 2 н/о н/о +14.0 +10.5 79 +14 +14 1033.6 975.1
08 13.09 З 1 н/о н/о +16.8 +11.2 70 +18 +18 1032.6 974.7
09 13.09 СЗ 1 н/о н/о +19.5 +10.8 57 +22 +22 комфорт 1031.8 974.4
10 13.09 Ю 1 н/о н/о +20.4 +11.7 57 +23 +23 комфорт 1030.9 973.8
11 13.09 ЮВ 1 н/о н/о +22.0 +11.8 52 +24 +24 комфорт 1029.9 973.1
12 13.09 Ю 2 25 км 1/1 2000 м
[Cu hum]
+23.2 +12.4 51 +26 +36 жарко 1028.8 972.3
13 13.09 ЮВ 2 н/о н/о +24.4 +12.0 46 +26 +26 жарко 1027.7 971.5
14 13.09 ЮВ 2 н/о н/о +24.8 +14.0 51 +27 +27 жарко 1027.2 971.1
15 13.09 ЮВ 2 н/о н/о +24.6 +14.2 52 +27 +27 жарко 1026.6 970.5
16 13.09 ЮВ 2 н/о н/о +24.7 +14.3 52 +27 +27 жарко 1026.7 970.7
17 13.09 ЮВ 1 н/о н/о +22.9 +14.0 57 +26 +26 жарко 1027.1 970.7
18 13.09 СВ 1 20 км ясно +19.3 +14.0 71 +22 +22 комфорт 1028.3 971.2 +11.8 +25.2
19 13.09 штиль 0 н/о н/о +17.5 +14.1 80 +17 +17 1029.4 971.9
20 13.09 ЮЗ 1 н/о н/о +16.7 +14.0 84 +18 +18 1029.9 972.2
21 13.09 штиль 0 н/о н/о +15.5 +13.4 87 +15 +15 1030.7 972.7
22 13.09 С 1 н/о н/о +14.9 +13.0 88 +15 +15 1031.2 973.0
23 13.09 З 2 н/о н/о +14.0 +12.4 90 +13 +13 1031.5 973.1
00 14.09 З 1 н/о н/о +13.3 +11.8 91 +13 +13 1031.7 973.2
01 14.09 ЮЗ 1 н/о н/о +12.9 +11.6 92 +13 +13 1031.8 973.2
02 14.09 З 1 н/о н/о +13.3 +11.6 89 +13 +13 1031.4 972.9
03 14.09 ЮЗ 1 н/о н/о +12.0 +10.9 93 +12 +12 1031.9 973.1
04 14.09 В 1 н/о н/о +11.6 +10.6 94 +11 +11 1032.1 973.2
05 14.09 ЮЗ 1 5000 м 3/3 200 м
[Sc diur, vesp]
+11.4 +10.4 94 +11 +11 1032.5 973.5
06 14.09 З 1 н/о н/о +12.9 +11.2 89 +13 +14 1032.1 973.5 +11.2 +19.7
07 14.09 Ю 1 н/о н/о +14.4 +12.1 86 +15 +15 1032.1 973.8
08 14.09 С 1 н/о н/о +16.3 +12.2 77 +17 +17 1032.0 974.0
09 14.09 ЮВ 1 25 км 8/5 600 м
[Sc diur, vesp Ac trans Ci]
+19.0 +12.4 66 +21 +24 комфорт 1031.0 973.6
10 14.09 ЮЗ 1 н/о н/о +21.0 +12.7 59 +25 +25 комфорт 1029.6 972.7
11 14.09 Ю 1 н/о н/о +22.6 +13.6 57 +26 +26 жарко 1028.6 972.1
12 14.09 ЮВ 2 25 км 9/6 600 м
[Sc diur, vesp Cs]
+24.0 +13.5 52 +26 +30 жарко 1027.5 971.3
13 14.09 ЮВ 2 н/о н/о +24.4 +13.2 50 +27 +27 жарко 1026.6 970.5
14 14.09 В 3 н/о н/о +24.9 +13.1 48 +27 +27 жарко 1025.8 969.8
15 14.09 В 2 н/о н/о +24.7 +13.8 51 +27 +27 жарко 1025.3 969.3
16 14.09 В 2 н/о н/о +23.9 +14.0 54 +26 +26 жарко 1025.4 969.3
17 14.09 В 2 н/о н/о +22.6 +14.4 60 +26 +26 жарко 1026.2 969.8
18 14.09 В 2 20 км 5/4 1000 м
[Sc diur, vesp Cs]
+20.8 +14.1 65 +24 +24 комфорт 1027.1 970.3 +12.6 +25.1
19 14.09 штиль 0 н/о н/о +19.3 +14.2 72 +21 +21 комфорт 1027.9 970.8
20 14.09 СЗ 1 н/о н/о +17.7 +14.2 80 +19 +19 1028.2 970.8
21 14.09 Ю 1 н/о н/о +16.1 +14.1 88 +17 +17 1028.8 971.0
22 14.09 штиль 0 н/о н/о +16.5 +14.0 85 +16 +16 1028.8 971.1
23 14.09 штиль 0 н/о н/о +16.5 +14.4 87 +16 +16 1028.7 971.0
00 15.09 штиль 0 н/о н/о +16.5 +14.2 86 +16 +16 1028.5 970.8
01 15.09 штиль 0 н/о н/о +15.9 +13.9 88 +16 +16 1028.3 970.5
02 15.09 штиль 0 н/о н/о +15.8 +13.8 88 +16 +16 1028.2 970.4
03 15.09 штиль 0 н/о н/о +15.9 +13.8 87 +16 +16 1028.0 970.2
04 15.09 Ю 1 н/о н/о +15.7 +13.9 89 +16 +16 1027.5 969.7
05 15.09 штиль 0 15 км 8/8 300 м
[Sc diur, vesp]
+15.5 +14.0 91 +15 +15 1027.5 969.7
06 15.09 штиль 0 15 км 8/8 600 м
[Sc]
+16.2 +14.4 89 +16 +16 1027.4 969.7 +15.4 +21.0
07 15.09 Ю 1 н/о н/о +16.9 +14.2 84 +18 +18 1027.2 969.7
08 15.09 ЮВ 1 н/о н/о +19.1 +14.7 76 +22 +22 комфорт 1026.6 969.5
09 15.09 ЮВ 1 15 км 5/5 1500 м
[Cu hum]
+21.2 +14.7 66 +24 +29 комфорт 1025.7 969.1
10 15.09 ЮВ 1 н/о н/о +22.2 +14.6 62 +26 +26 душно 1024.9 968.5
11 15.09 ЮВ 1 н/о н/о +23.1 +14.3 58 +27 +27 душно 1023.7 967.5
12 15.09 ЮВ 1 30 км 1/1 1500 м
[Cu hum]
+24.9 +14.9 54 +28 +39 жарко 1022.4 966.6
13 15.09 ЮВ 2 н/о н/о +25.3 +15.0 53 +28 +28 жарко 1021.3 965.7
14 15.09 ЮВ 3 н/о н/о +25.5 +15.6 54 +29 +29 душно 1020.7 965.2
15 15.09 ЮВ 2 н/о н/о +25.5 +16.0 56 +29 +29 душно 1020.2 964.7
16 15.09 ЮВ 2 н/о н/о +24.8 +16.0 58 +28 +28 жарко 1020.1 964.5
17 15.09 ЮВ 2 н/о н/о +23.3 +16.1 64 +28 +28 душно 1020.4 964.5
18 15.09 СВ 1 30 км ясно +21.0 +16.3 75 +26 +26 душно 1021.1 964.7 +16.1 +26.0
19 15.09 штиль 0 н/о н/о +19.1 +15.9 82 +20 +20 1021.9 965.1
20 15.09 Ю 1 н/о н/о +17.6 +15.7 89 +19 +19 1022.3 965.2
21 15.09 штиль 0 н/о н/о +16.6 +15.0 90 +16 +16 1022.6 965.3
22 15.09 СЗ 1 н/о н/о +17.2 +14.9 86 +18 +18 1022.5 965.3
23 15.09 штиль 0 н/о н/о +15.8 +14.5 92 +16 +16 1022.7 965.2
00 16.09 Ю 1 н/о н/о +15.3 +14.1 93 +16 +16 1022.5 964.9
01 16.09 штиль 0 н/о н/о +14.8 +13.8 94 +14 +14 1022.4 964.7
02 16.09 ЮЗ 1 н/о н/о +14.4 +13.3 93 +15 +15 1022.2 964.5
03 16.09 СЗ 1 н/о н/о +15.0 +13.5 91 +15 +15 1021.8 964.2
04 16.09 З 1 н/о н/о +14.0 +12.9 93 +14 +14 1021.8 964.0
05 16.09 З 2 н/о н/о +13.5 +12.5 94 +13 +13 1022.0 964.1
06 16.09 С 1 15 км 1/1 1000 м
[Sc diur, vesp]
+14.4 +13.1 92 +15 +15 1021.8 964.1 +13.4 +21.2
07 16.09 З 1 н/о н/о +16.8 +13.8 82 +18 +18 1021.2 964.0
08 16.09 СВ 1 н/о н/о +18.4 +14.4 78 +20 +20 1020.6 963.7
09 16.09 Ю 1 30 км ясно +21.4 +14.0 63 +24 +33 комфорт 1019.7 963.4
10 16.09 В 1 н/о н/о +22.8 +15.3 63 +27 +27 душно 1018.4 962.5
11 16.09 ЮВ 1 н/о н/о +24.4 +15.9 59 +28 +28 душно 1017.6 962.0
12 16.09 ЮВ 1 н/о н/о +25.6 +15.7 54 +29 +29 душно 1016.2 960.9
13 16.09 ЮВ 2 н/о н/о +27.0 +15.1 48 +30 +30 душно 1015.1 960.1 0.0
14 16.09 В 2 н/о н/о +27.0 +15.5 49 +30 +30 душно 1014.1 959.2
15 16.09 ЮВ 1 н/о н/о +27.2 +17.2 54 +31 +31 душно 1013.6 958.8 0.0
16 16.09 ЮВ 2 н/о н/о +26.6 +16.1 53 +30 +30 душно 1013.3 958.4
17 16.09 В 2 н/о н/о +24.6 +16.5 61 +28 +28 душно 1013.7 958.4
18 16.09 В 1 20 км 8/5 1500 м
[Cu med, cong Ac trans]
+22.0 +16.6 71 +26 +26 душно 1014.8 959.0 +13.9 +27.7 0.0
19 16.09 Ю 1 н/о н/о +20.9 +17.1 79 +26 +26 душно 1015.2 959.2
20 16.09 ЮЗ 1 н/о н/о +19.7 +16.6 82 +23 +23 комфорт 1015.8 959.5
21 16.09 штиль 0 н/о н/о +18.6 +16.2 86 +19 +19 1016.2 959.7
22 16.09 СЗ 1 н/о н/о +17.8 +15.2 85 +19 +19 1016.3 959.6
23 16.09 З 1 н/о н/о +17.5 +14.7 84 +19 +19 1016.4 959.6
00 17.09 З 1 н/о н/о +16.8 +14.3 85 +18 +18 1016.2 959.3
01 17.09 ЮЗ 1 н/о н/о +16.1 +14.3 89 +17 +17 1016.0 959.0
02 17.09 З 1 н/о н/о +17.1 +14.2 83 +18 +18 1015.6 958.8
03 17.09 СЗ 1 н/о н/о +16.9 +14.4 85 +18 +18 1015.6 958.7
04 17.09 Ю 1 н/о н/о +16.3 +14.3 88 +17 +17 1015.5 958.5
05 17.09 штиль 0 20 км 10/1 200 м
[Sc diur, vesp As op]
+15.7 +14.3 91 +15 +15 1015.8 958.7
06 17.09 Ю 1 20 км 8/1 200 м
[Sc diur, vesp As op]
+16.3 +14.4 89 +17 +17 1015.9 958.9 +15.5 +22.3
07 17.09 штиль 0 н/о н/о +18.1 +14.7 81 +18 +18 1015.4 958.8
08 17.09 С 1 н/о н/о +20.1 +14.7 71 +24 +24 комфорт 1015.1 958.9
09 17.09 ЮВ 1 25 км 3/3 600 м
[Cu hum]
+22.3 +14.9 63 +26 +32 жарко 1014.4 958.6
10 17.09 ЮВ 1 н/о н/о +24.0 +14.5 55 +27 +27 жарко 1013.3 957.9
11 17.09 ЮВ 2 н/о н/о +25.3 +15.9 56 +29 +29 душно 1012.4 957.3
12 17.09 ЮВ 2 25 км 6/6 600 м
[Cu med, cong]
+26.0 +16.4 55 +29 +33 душно 1011.4 956.5
13 17.09 ЮВ 2 н/о н/о +25.4 +16.7 59 +29 +29 душно 1011.0 956.0
14 17.09 В 1 н/о н/о +25.0 +16.5 59 +28 +28 жарко 1010.8 955.7
15 17.09 ЮВ 1 н/о н/о +24.8 +16.6 60 +28 +28 жарко 1010.5 955.4 0.0
16 17.09 ЮВ 1 н/о н/о +24.7 +16.1 59 +28 +28 душно 1010.4 955.3
17 17.09 С 4 н/о н/о +21.9 +17.0 74 +26 +26 душно 1011.3 955.7
18 17.09 В 3 20 км 9/0 1500 м
[Ac As]
+20.6 +17.1 80 +24 +24 комфорт 1012.3 956.4 +16.1 +26.5 0.0
19 17.09 В 2 н/о осадки н/о +19.4 +17.4 88 +22 +22 комфорт 1013.2 957.0 0.3
20 17.09 ЮВ 1 н/о ливневой дождь н/о +18.5 +17.3 93 +20 +20 1014.1 957.7 0.5
21 17.09 штиль 0 н/о {ливн. осадки} н/о +18.0 +16.9 93 +18 +18 1014.2 957.7 0.8
22 17.09 ЮВ 1 н/о н/о +17.5 +16.5 94 +19 +19 1014.7 958.0
23 17.09 Ю 1 н/о н/о +17.1 +16.3 95 +18 +18 1014.7 958.0
00 18.09 штиль 0 н/о {ливн. осадки} н/о +16.9 +16.0 94 +17 +17 1015.0 958.2 0.8
01 18.09 СВ 1 н/о н/о +15.9 +14.6 92 +17 +17 1015.4 958.4
02 18.09 С 1 н/о н/о +16.2 +15.4 95 +17 +17 1015.8 958.8
03 18.09 СВ 1 н/о н/о +15.3 +13.5 89 +16 +16 1016.4 959.2
04 18.09 В 1 н/о н/о +15.5 +14.0 91 +16 +16 1017.0 959.8
05 18.09 З 1 3000 м 10/10 200 м
[Frnb]
+15.3 +13.6 90 +16 +16 1017.5 960.2
06 18.09 С 1 10 км 8/8 200 м
[St]
+15.0 +12.8 87 +15 +16 1018.2 960.8 +14.7 +20.6 0.8
07 18.09 СЗ 1 н/о н/о +16.0 +13.2 83 +17 +17 1018.5 961.3
08 18.09 штиль 0 н/о н/о +16.9 +13.9 82 +17 +17 1018.9 961.8
09 18.09 В 3 1000 м 8/8 300 м
[St]
+18.0 +14.0 77 +18 +19 1018.9 962.0
10 18.09 В 4 н/о н/о +18.7 +12.2 66 +19 +19 1019.2 962.4
11 18.09 В 3 н/о н/о +17.8 +11.2 65 +18 +18 1019.4 962.4
12 18.09 В 4 15 км 8/8 1500 м
[Sc]
+17.4 +10.3 63 +17 +18 1019.4 962.3
13 18.09 В 4 н/о н/о +17.3 +10.1 63 +17 +17 1019.4 962.3
14 18.09 В 4 н/о н/о +17.4 +9.5 60 +17 +17 1019.4 962.3
15 18.09 В 3 н/о н/о +16.8 +9.2 61 +17 +17 1019.5 962.3
16 18.09 В 3 н/о н/о +16.1 +9.6 65 +16 +16 1020.0 962.6
17 18.09 В 2 н/о н/о +15.7 +10.2 70 +16 +16 1020.5 963.0
18 18.09 В 3 10 км 8/8 1500 м
[Sc]
+15.0 +9.7 71 +14 +14 1021.1 963.5 +14.7 +19.1
19 18.09 В 3 н/о н/о +14.5 +9.4 71 +14 +14 1021.9 964.1
20 18.09 В 3 н/о н/о +14.2 +9.3 72 +13 +13 1022.2 964.3
21 18.09 ЮВ 3 н/о н/о +13.6 +9.0 74 +12 +12 1022.5 964.5
22 18.09 В 2 н/о н/о +13.3 +8.7 74 +13 +13 1022.8 964.7
23 18.09 ЮВ 2 н/о н/о +13.1 +7.7 70 +12 +12 1023.0 964.9
00 19.09 ЮВ 2 н/о н/о +12.9 +7.0 67 +12 +12 1023.4 965.2
01 19.09 ЮВ 1 н/о н/о +12.5 +6.8 68 +13 +13 1023.2 964.9
02 19.09 ЮВ 1 н/о н/о +12.3 +7.7 73 +12 +12 1023.1 964.8
03 19.09 ЮВ 1 н/о н/о +12.1 +8.2 77 +12 +12 1023.0 964.7
04 19.09 В 2 н/о н/о +12.2 +7.5 73 +11 +11 1023.0 964.7
05 19.09 ЮВ 2 6000 м 10/10 1500 м
[Frnb]
+12.1 +7.6 74 +11 +11 1023.6 965.2
06 19.09 ЮВ 2 6000 м 10/10 1500 м
[Frnb]
+12.2 +7.6 73 +11 +11 1024.1 965.7 +12.0 +15.1
07 19.09 В 2 н/о н/о +12.9 +7.0 67 +12 +12 1024.6 966.3
08 19.09 В 3 н/о н/о +14.3 +7.0 61 +13 +13 1024.6 966.6
09 19.09 В 4 н/о н/о +15.7 +5.4 50 +15 +15 1024.3 966.6

 

Местоположение метеостанции Филлах (Австрия): широта 46.62 долгота 13.88 высота над уровнем моря 494 м.

В архиве по умолчанию представлена погода в Филлахе за последнюю неделю. Архивные данные за месяц целиком и за предыдущие месяцы, начиная с января 2011 года, Вы можете получить, выбрав интересующий диапазон дат из раскрывающегося списка и нажав кнопку "Ввод!".


*Определитесь, кто Вы:
робот инопланетянин человек

Внимание! Время в таблицах - всемирное. Для получения местного времени необходимо прибавить поправку, которая равна 1 ч.

Смотрите также архив погоды в соседних городах и на ближайших метеорологических станциях:

Погода в Арриахе (Австрия) (12 км)
Погода на Добраче (Австрия) (16 км)
Погода на Добраче АМС (Австрия) (16 км)
Погода в Ратеце (Словения) (18 км)
Погода в Фельдкирхене (Австрия) (20 км)
Погода в Пёрчах-ам-Вёртерзе (Австрия) (22 км)
Погода Тарвизио (Италия) (27 км)
Погода на Кредарике (Словения) (27 км)
Погода в Клагенфурте (Австрия) (34 км)
Погода в Клагенфурте (Австрия) (35 км)

Пояснения к столбцам:

Ветер - указаны скорость ветра в м/с - средняя за 10 мин, порывы в срок и между сроками (в фигурных скобках) и направление, откуда дует ветер: С - северный, СВ - северо-восточный, В - восточный, ЮВ - юго-восточный, Ю - южный, ЮЗ - юго-западный, З - западный, СЗ - северо-западный.
Видимость - горизонтальная дальность видимости в метрах или километрах. При видимости от 1 до 10 км при отсутствии осадков обычно наблюдается дымка, при ухудшении видимости до 1 км и менее - туман. В сухую погоду видимость может ухудшаться дымом, пылью или мглою.
Явления - указаны атмосферные явления, наблюдавшиеся в срок или в последний час перед сроком; фигурными скобками обозначены явления, наблюдавшиеся между сроками (за 1-3 часа до срока); квадратными скобками обозначены град или гололедные отложения с указанием их диаметра в мм.
Облачность - указаны через наклонную черту общая и нижняя облачность в баллах и высота нижней границы облаков в метрах; квадратными скобками обозначены формы облаков: Ci - перистые, Cs - перисто-слоистые, Cc - перисто-кучевые, Ac - высококучевые, As - высокослоистые, Sc - слоисто-кучевые, Ns - слоисто-дождевые, Cu - кучевые, Cb - кучево-дождевые. Подробнее классификацию облаков см. в Атласе облаков (PDF).
T - Температура воздуха - температура, измеренная на высоте 2 м над землей.
Td - Температура точки росы - температура, при понижении до которой содержащийся в воздухе водяной пар достигнет насыщения.
f - Относительная влажность воздуха - влажноcть воздуха, измеренная на высоте 2 м над землей.
Te - Эффективная температура - температура, которую ощущает одетый по сезону человек в тени. Характеристика душности погоды. При расчете учитывается влияние влажности воздуха и скорости ветра на теплоощущения человека.
Tes - Эффективная температура на солнце - температура, которую ощущает человек, с поправкой на солнечный нагрев. Характеристика знойности погоды. Зависит от высоты солнца над горизонтом, облачности и скорости ветра. Ночью, в пасмурную погоду, а также при ветре 12 м/с и более поправка равна нулю.
P - Атмосферное давление - приведенное к уровню моря атмосферное давление.
Po - Атмосферное давление - измеренное на уровне метеостанции атмосферное давление.
Tmin - Минимальная температура - минимум температуры воздуха на высоте 2 м над землей.
Tmax - Максимальная температура - максимум температуры воздуха на высоте 2 м над землей.
R - Количество осадков - Количество выпавших осадков за период времени, мм. При наведении курсора мыши на число - период времени, за который выпало указанное количество осадков.
R24 - Количество осадков - Количество выпавших осадков за 24 часа, мм.
S - Снежный покров - Высота снежного покрова, см. При наведении курсора мыши на число - состояние снежного покрова и степень покрытия местности в баллах.